This is the latest recevied weather packets stored in our database for station/object S51UL-6. If no packets are shown the sender has not sent any weather packets the latest 10 day(s).
| Time | Temp. | Humidity | Pressure | Rain* | Wind** | Luminosity | Snow |
|---|---|---|---|---|---|---|---|
| 1777532397 | 7.22° C | 47% | 1030.4 hPa | 0 mm | - | - | - |
| 1777532096 | 6.67° C | 47% | 1030.3 hPa | 0 mm | - | - | - |
| 1777531196 | 6.67° C | 48% | 1030.4 hPa | 0 mm | - | - | - |
| 1777530896 | 6.11° C | 48% | 1030.5 hPa | 0 mm | - | - | - |
| 1777530596 | 6.11° C | 48% | 1030.4 hPa | 0 mm | - | - | - |
| 1777530296 | 6.11° C | 48% | 1030.3 hPa | 0 mm | - | - | - |
| 1777529999 | 6.11° C | 48% | 1030.4 hPa | 0 mm | - | - | - |
| 1777529697 | 5.56° C | 48% | 1030.3 hPa | 0 mm | - | - | - |
| 1777529096 | 5.56° C | 49% | 1030.3 hPa | 0 mm | - | - | - |
| 1777528797 | 5.56° C | 49% | 1030.3 hPa | 0 mm | - | - | - |
| 1777528197 | 5.56° C | 50% | 1030.2 hPa | 0 mm | - | - | - |
| 1777527897 | 5° C | 50% | 1030.3 hPa | 0 mm | - | - | - |
| 1777527597 | 5° C | 50% | 1030.3 hPa | 0 mm | - | - | - |
| 1777527297 | 4.44° C | 51% | 1030.2 hPa | 0 mm | - | - | - |
| 1777526997 | 4.44° C | 52% | 1030 hPa | 0 mm | - | - | - |
| 1777526697 | 4.44° C | 52% | 1030 hPa | 0 mm | - | - | - |
| 1777526397 | 4.44° C | 52% | 1029.9 hPa | 0 mm | - | - | - |
| 1777526097 | 3.89° C | 52% | 1029.9 hPa | 0 mm | - | - | - |
| 1777525797 | 3.89° C | 52% | 1030 hPa | 0 mm | - | - | - |
| 1777525497 | 3.89° C | 52% | 1029.8 hPa | 0 mm | - | - | - |
| 1777525197 | 3.33° C | 52% | 1029.8 hPa | 0 mm | - | - | - |
| 1777524897 | 3.33° C | 52% | 1029.9 hPa | 0 mm | - | - | - |
| 1777524598 | 3.33° C | 52% | 1029.9 hPa | 0 mm | - | - | - |
| 1777524297 | 3.33° C | 52% | 1029.7 hPa | 0 mm | - | - | - |
| 1777523997 | 3.33° C | 52% | 1029.7 hPa | 0 mm | - | - | - |
* Rain latest hour (hover to see other rain measurements)
** Current wind speed in m/s (hover to see current wind gust speed)